When you browse on this site, cookies collect data to enhance your experience and personalize the content and advertising you see.
Visit our Privacy Policy to learn more. By continuing to use the site, you agree to this use of cookies and data.
  • In United Kingdom
  • List of Countries
  • For 7 days
  • Water Temperature
  • Satellite Maps
  • Weather Map
  • Weather Widgets
  • user-avatar
    Login

    Hourly Weather Chernomorec

    Today, 18 July, Thursday

    Time Temperature Precipitation Wind Pressure Humidity
    00:00 +20°C° 0 mm 1 mps 756 mmHg 73%
    01:00 +19°C° 0 mm 2 mps 756 mmHg 72%
    02:00 +19°C° 0 mm 2 mps 756 mmHg 70%
    03:00 +19°C° 0 mm 2 mps 756 mmHg 70%
    04:00 +18°C° 0 mm 2 mps 756 mmHg 71%
    05:00 +18°C° 0 mm 2 mps 757 mmHg 71%
    06:00 +20°C° 0 mm 2 mps 757 mmHg 66%
    07:00 +23°C° 0 mm 2 mps 757 mmHg 60%
    08:00 +25°C° 0 mm 2 mps 757 mmHg 55%
    09:00 +27°C° 0 mm 2 mps 757 mmHg 50%
    10:00 +28°C° 0 mm 2 mps 758 mmHg 45%
    11:00 +29°C° 0 mm 2 mps 758 mmHg 40%
    12:00 +30°C° 0 mm 3 mps 758 mmHg 40%
    13:00 +30°C° 0 mm 3 mps 758 mmHg 40%
    14:00 +30°C° 0 mm 3 mps 758 mmHg 41%
    15:00 +29°C° 0 mm 3 mps 758 mmHg 42%
    16:00 +29°C° 0 mm 3 mps 758 mmHg 44%
    17:00 +29°C° 0 mm 3 mps 758 mmHg 46%
    18:00 +27°C° 0 mm 3 mps 758 mmHg 54%
    19:00 +25°C° 0 mm 2 mps 758 mmHg 62%
    20:00 +23°C° 0 mm 2 mps 759 mmHg 71%
    21:00 +21°C° 0 mm 2 mps 759 mmHg 72%
    22:00 +21°C° 0 mm 1 mps 759 mmHg 74%
    23:00 +21°C° 0 mm 1 mps 760 mmHg 76%

    Tomorrow, 19 July, Friday

    Time Temperature Precipitation Wind Pressure Humidity
    00:00 +20°C° 0 mm 1 mps 760 mmHg 76%
    01:00 +20°C° 0 mm 1 mps 760 mmHg 77%
    02:00 +20°C° 0 mm 1 mps 760 mmHg 77%
    03:00 +20°C° 0 mm 1 mps 760 mmHg 79%
    04:00 +19°C° 0 mm 1 mps 760 mmHg 80%
    05:00 +19°C° 0 mm 1 mps 760 mmHg 81%
    06:00 +21°C° 0 mm 1 mps 761 mmHg 73%
    07:00 +24°C° 0 mm 1 mps 761 mmHg 65%
    08:00 +26°C° 0 mm 1 mps 761 mmHg 57%
    09:00 +27°C° 0 mm 1 mps 761 mmHg 53%
    10:00 +28°C° 0 mm 2 mps 761 mmHg 48%
    11:00 +29°C° 0 mm 3 mps 761 mmHg 44%
    12:00 +30°C° 0 mm 3 mps 761 mmHg 43%
    13:00 +30°C° 0 mm 4 mps 761 mmHg 42%
    14:00 +30°C° 0 mm 4 mps 761 mmHg 41%
    15:00 +30°C° 0 mm 4 mps 761 mmHg 44%
    16:00 +29°C° 0 mm 4 mps 761 mmHg 46%
    17:00 +28°C° 0 mm 4 mps 761 mmHg 48%
    18:00 +26°C° 0 mm 4 mps 761 mmHg 58%
    19:00 +23°C° 0 mm 4 mps 761 mmHg 68%
    20:00 +21°C° 0 mm 3 mps 762 mmHg 78%
    21:00 +21°C° 0 mm 3 mps 762 mmHg 80%
    22:00 +20°C° 0 mm 2 mps 762 mmHg 83%
    23:00 +19°C° 0 mm 2 mps 762 mmHg 86%

    Day after tomorrow, 20 July, Saturday

    Time Temperature Precipitation Wind Pressure Humidity
    00:00 +20°C° 0 mm 1 mps 762 mmHg 86%
    01:00 +20°C° 0 mm 1 mps 762 mmHg 86%
    02:00 +20°C° 0 mm 1 mps 762 mmHg 87%
    03:00 +19°C° 0 mm 1 mps 762 mmHg 87%
    04:00 +19°C° 0 mm 1 mps 762 mmHg 87%
    05:00 +19°C° 0 mm 1 mps 762 mmHg 87%
    06:00 +20°C° 0 mm 2 mps 762 mmHg 79%
    07:00 +23°C° 0 mm 2 mps 762 mmHg 71%
    08:00 +25°C° 0 mm 2 mps 762 mmHg 64%
    09:00 +27°C° 0 mm 3 mps 762 mmHg 57%
    10:00 +28°C° 0 mm 3 mps 762 mmHg 50%
    11:00 +30°C° 0 mm 4 mps 762 mmHg 43%
    12:00 +30°C° 0 mm 4 mps 762 mmHg 43%
    13:00 +30°C° 0 mm 5 mps 762 mmHg 43%
    14:00 +30°C° 0 mm 5 mps 762 mmHg 42%
    15:00 +30°C° 0 mm 5 mps 762 mmHg 44%
    16:00 +29°C° 0 mm 4 mps 762 mmHg 46%
    17:00 +29°C° 0 mm 4 mps 762 mmHg 48%
    18:00 +26°C° 0 mm 4 mps 762 mmHg 58%
    19:00 +24°C° 0 mm 3 mps 763 mmHg 68%
    20:00 +21°C° 0 mm 3 mps 763 mmHg 78%
    21:00 +21°C° 0 mm 2 mps 763 mmHg 79%
    22:00 +20°C° 0 mm 2 mps 763 mmHg 81%
    23:00 +21°C° 0 mm 1 mps 763 mmHg 82%

    21 July, Sunday

    Time Temperature Precipitation Wind Pressure Humidity
    00:00 +21°C° 0 mm 1 mps 763 mmHg 81%
    01:00 +20°C° 0 mm 1 mps 763 mmHg 80%
    02:00 +20°C° 0 mm 1 mps 763 mmHg 80%
    03:00 +19°C° 0 mm 2 mps 763 mmHg 79%
    04:00 +19°C° 0 mm 2 mps 763 mmHg 79%
    05:00 +19°C° 0 mm 2 mps 763 mmHg 79%
    06:00 +21°C° 0 mm 2 mps 763 mmHg 69%
    07:00 +24°C° 0 mm 1 mps 763 mmHg 60%
    08:00 +27°C° 0 mm 1 mps 763 mmHg 51%
    09:00 +28°C° 0 mm 2 mps 763 mmHg 45%
    10:00 +30°C° 0 mm 2 mps 763 mmHg 40%
    11:00 +31°C° 0 mm 2 mps 763 mmHg 34%
    12:00 +31°C° 0 mm 3 mps 763 mmHg 34%
    13:00 +33°C° 0 mm 3 mps 763 mmHg 33%
    14:00 +33°C° 0 mm 4 mps 763 mmHg 32%
    15:00 +33°C° 0 mm 4 mps 763 mmHg 34%
    16:00 +32°C° 0 mm 4 mps 763 mmHg 36%
    17:00 +30°C° 0 mm 4 mps 762 mmHg 38%
    18:00 +28°C° 0 mm 3 mps 763 mmHg 47%
    19:00 +26°C° 0 mm 2 mps 763 mmHg 56%
    20:00 +23°C° 0 mm 1 mps 763 mmHg 65%
    21:00 +23°C° 0 mm 1 mps 763 mmHg 65%
    22:00 +22°C° 0 mm 1 mps 763 mmHg 64%
    23:00 +20°C° 0 mm 0 mps 763 mmHg 64%

    22 July, Monday

    Time Temperature Precipitation Wind Pressure Humidity
    00:00 +22°C° 0 mm 1 mps 763 mmHg 63%
    01:00 +22°C° 0 mm 1 mps 763 mmHg 62%
    02:00 +21°C° 0 mm 2 mps 763 mmHg 61%
    03:00 +21°C° 0 mm 1 mps 762 mmHg 60%
    04:00 +21°C° 0 mm 1 mps 762 mmHg 60%
    05:00 +21°C° 0 mm 1 mps 762 mmHg 60%
    06:00 +24°C° 0 mm 1 mps 762 mmHg 53%
    07:00 +26°C° 0 mm 1 mps 762 mmHg 47%
    08:00 +29°C° 0 mm 1 mps 762 mmHg 41%
    09:00 +30°C° 0 mm 1 mps 762 mmHg 38%
    10:00 +32°C° 0 mm 1 mps 762 mmHg 35%
    11:00 +33°C° 0 mm 1 mps 762 mmHg 31%
    12:00 +35°C° 0 mm 2 mps 762 mmHg 31%
    13:00 +35°C° 0 mm 3 mps 762 mmHg 30%
    14:00 +35°C° 0 mm 4 mps 761 mmHg 29%
    15:00 +34°C° 0 mm 4 mps 761 mmHg 31%
    16:00 +33°C° 0 mm 4 mps 761 mmHg 34%
    17:00 +33°C° 0 mm 4 mps 761 mmHg 36%
    18:00 +29°C° 0 mm 3 mps 761 mmHg 43%
    19:00 +27°C° 0 mm 3 mps 761 mmHg 51%
    20:00 +25°C° 0 mm 2 mps 760 mmHg 59%
    21:00 +24°C° 0 mm 1 mps 760 mmHg 58%
    22:00 +24°C° 0 mm 1 mps 760 mmHg 58%
    23:00 +23°C° 0 mm 1 mps 760 mmHg 58%

    23 July, Tuesday

    Time Temperature Precipitation Wind Pressure Humidity
    00:00 +23°C° 0 mm 1 mps 760 mmHg 58%
    01:00 +23°C° 0 mm 1 mps 760 mmHg 58%
    02:00 +23°C° 0 mm 1 mps 760 mmHg 58%
    03:00 +23°C° 0 mm 1 mps 760 mmHg 57%
    04:00 +22°C° 0 mm 1 mps 759 mmHg 57%
    05:00 +22°C° 0 mm 1 mps 759 mmHg 56%
    06:00 +25°C° 0 mm 1 mps 759 mmHg 50%
    07:00 +27°C° 0 mm 1 mps 759 mmHg 44%
    08:00 +30°C° 0 mm 1 mps 759 mmHg 39%
    09:00 +31°C° 0 mm 1 mps 759 mmHg 36%
    10:00 +34°C° 0 mm 2 mps 759 mmHg 34%
    11:00 +35°C° 0 mm 2 mps 759 mmHg 31%
    12:00 +36°C° 0 mm 3 mps 759 mmHg 31%
    13:00 +36°C° 0 mm 4 mps 758 mmHg 31%
    14:00 +36°C° 0 mm 5 mps 758 mmHg 32%
    15:00 +35°C° 0 mm 5 mps 758 mmHg 35%
    16:00 +34°C° 0 mm 4 mps 758 mmHg 39%
    17:00 +32°C° 0 mm 4 mps 757 mmHg 43%
    18:00 +29°C° 0.1 mm 4 mps 758 mmHg 53%
    19:00 +27°C° 0.1 mm 3 mps 758 mmHg 63%
    20:00 +24°C° 0.1 mm 3 mps 758 mmHg 74%
    21:00 +24°C° 0.3 mm 3 mps 758 mmHg 77%
    22:00 +24°C° 0.3 mm 2 mps 759 mmHg 81%
    23:00 +23°C° 0.3 mm 2 mps 759 mmHg 84%
    Show more